Year,Month,Day,Hour,Minute,Value (Times are PST for temperature in C)
2016,03,30,00,00,10.10
2016,03,30,00,01,10.10
2016,03,30,00,02,10.10
2016,03,30,00,03,10.10
2016,03,30,00,04,10.10
2016,03,30,00,05,10.10
2016,03,30,00,06,10.10
2016,03,30,00,07,10.10
2016,03,30,00,09,10.10
2016,03,30,00,10,10.10
2016,03,30,00,11,10.10
2016,03,30,00,12,10.10
2016,03,30,00,13,10.10
2016,03,30,00,14,10.10
2016,03,30,00,15,10.10
2016,03,30,00,16,10.10
2016,03,30,00,17,10.10
2016,03,30,00,18,10.10
2016,03,30,00,19,10.10
2016,03,30,00,20,10.10
2016,03,30,00,21,10.10
2016,03,30,00,22,10.10
2016,03,30,00,23,9.90
2016,03,30,00,24,9.90
2016,03,30,00,25,9.90
2016,03,30,00,26,9.90
2016,03,30,00,27,9.90
2016,03,30,00,28,9.90
2016,03,30,00,29,9.90
2016,03,30,00,30,9.90
2016,03,30,00,31,9.90
2016,03,30,00,32,9.90
2016,03,30,00,33,9.90
2016,03,30,00,34,9.90
2016,03,30,00,35,9.90
2016,03,30,00,36,9.90
2016,03,30,00,37,9.90
2016,03,30,00,38,9.90
2016,03,30,00,39,9.90
2016,03,30,00,40,9.90
2016,03,30,00,41,10.10
2016,03,30,00,42,10.10
2016,03,30,00,43,10.10
2016,03,30,00,44,10.10
2016,03,30,00,45,10.10
2016,03,30,00,46,10.10
2016,03,30,00,47,10.10
2016,03,30,00,48,10.10
2016,03,30,00,49,10.20
2016,03,30,00,50,10.20
2016,03,30,00,51,10.20
2016,03,30,00,52,10.20
2016,03,30,00,53,10.20
2016,03,30,00,54,10.30
2016,03,30,00,55,10.30
2016,03,30,00,56,10.30
2016,03,30,00,57,10.30
2016,03,30,00,58,10.30
2016,03,30,00,59,10.40
2016,03,30,01,00,10.40
2016,03,30,01,01,10.40
2016,03,30,01,02,10.40
2016,03,30,01,03,10.40
2016,03,30,01,04,10.40
2016,03,30,01,05,10.40
2016,03,30,01,06,10.40
2016,03,30,01,07,10.40
2016,03,30,01,08,10.40
2016,03,30,01,09,10.40
2016,03,30,01,10,10.40
2016,03,30,01,11,10.30
2016,03,30,01,12,10.30
2016,03,30,01,13,10.30
2016,03,30,01,14,10.30
2016,03,30,01,15,10.30
2016,03,30,01,16,10.30
2016,03,30,01,17,10.20
2016,03,30,01,18,10.20
2016,03,30,01,19,10.20
2016,03,30,01,20,10.20
2016,03,30,01,21,10.20
2016,03,30,01,22,10.20
2016,03,30,01,23,10.20
2016,03,30,01,24,10.10
2016,03,30,01,26,10.10
2016,03,30,01,27,10.10
2016,03,30,01,28,10.10
2016,03,30,01,29,10.10
2016,03,30,01,31,10.10
2016,03,30,01,32,10.10
2016,03,30,01,33,10.10
2016,03,30,01,34,10.10
2016,03,30,01,36,10.10
2016,03,30,01,37,10.10
2016,03,30,01,38,10.10
2016,03,30,01,39,10.10
2016,03,30,01,41,10.10
2016,03,30,01,42,10.10
2016,03,30,01,43,10.10
2016,03,30,01,44,10.10
2016,03,30,01,46,9.90
2016,03,30,01,47,9.90
2016,03,30,01,48,9.90
2016,03,30,01,49,9.90
2016,03,30,01,51,9.90
2016,03,30,01,52,9.80
2016,03,30,01,53,9.80
2016,03,30,01,54,9.80
2016,03,30,01,56,9.70
2016,03,30,01,57,9.70
2016,03,30,01,58,9.70
2016,03,30,01,59,9.70
2016,03,30,02,01,9.70
2016,03,30,02,02,9.70
2016,03,30,02,03,9.70
2016,03,30,02,04,9.70
2016,03,30,02,06,9.70
2016,03,30,02,07,9.70
2016,03,30,02,08,9.60
2016,03,30,02,09,9.60
2016,03,30,02,11,9.60
2016,03,30,02,12,9.60
2016,03,30,02,13,9.60
2016,03,30,02,14,9.60
2016,03,30,02,16,9.60
2016,03,30,02,17,9.60
2016,03,30,02,18,9.60
2016,03,30,02,19,9.60
2016,03,30,02,21,9.60
2016,03,30,02,22,9.60
2016,03,30,02,23,9.60
2016,03,30,02,24,9.60
2016,03,30,02,26,9.60
2016,03,30,02,27,9.50
2016,03,30,02,28,9.50
2016,03,30,02,29,9.50
2016,03,30,02,31,9.50
2016,03,30,02,32,9.50
2016,03,30,02,33,9.50
2016,03,30,02,34,9.50
2016,03,30,02,36,9.50
2016,03,30,02,37,9.40
2016,03,30,02,38,9.40
2016,03,30,02,39,9.40
2016,03,30,02,40,9.40
2016,03,30,02,41,9.40
2016,03,30,02,42,9.30
2016,03,30,02,43,9.30
2016,03,30,02,44,9.30
2016,03,30,02,45,9.30
2016,03,30,02,46,9.20
2016,03,30,02,47,9.20
2016,03,30,02,48,9.20
2016,03,30,02,49,9.20
2016,03,30,02,50,9.20
2016,03,30,02,51,9.20
2016,03,30,02,52,9.20
2016,03,30,02,53,9.20
2016,03,30,02,54,9.20
2016,03,30,02,55,9.20
2016,03,30,02,56,9.10
2016,03,30,02,57,9.10
2016,03,30,02,58,9.00
2016,03,30,02,59,9.00
2016,03,30,03,00,8.90
2016,03,30,03,01,8.90
2016,03,30,03,02,8.90
2016,03,30,03,03,8.80
2016,03,30,03,04,8.80
2016,03,30,03,05,8.70
2016,03,30,03,06,8.70
2016,03,30,03,07,8.70
2016,03,30,03,08,8.70
2016,03,30,03,09,8.60
2016,03,30,03,10,8.50
2016,03,30,03,11,8.50
2016,03,30,03,12,8.50
2016,03,30,03,13,8.40
2016,03,30,03,14,8.40
2016,03,30,03,15,8.40
2016,03,30,03,16,8.40
2016,03,30,03,17,8.40
2016,03,30,03,18,8.40
2016,03,30,03,19,8.40
2016,03,30,03,20,8.40
2016,03,30,03,21,8.40
2016,03,30,03,22,8.40
2016,03,30,03,23,8.50
2016,03,30,03,24,8.50
2016,03,30,03,25,8.50
2016,03,30,03,26,8.50
2016,03,30,03,27,8.50
2016,03,30,03,28,8.50
2016,03,30,03,29,8.50
2016,03,30,03,30,8.60
2016,03,30,03,31,8.60
2016,03,30,03,32,8.60
2016,03,30,03,33,8.60
2016,03,30,03,34,8.60
2016,03,30,03,35,8.60
2016,03,30,03,36,8.50
2016,03,30,03,37,8.50
2016,03,30,03,38,8.50
2016,03,30,03,39,8.50
2016,03,30,03,40,8.50
2016,03,30,03,41,8.50
2016,03,30,03,42,8.50
2016,03,30,03,43,8.40
2016,03,30,03,44,8.40
2016,03,30,03,45,8.40
2016,03,30,03,46,8.40
2016,03,30,03,47,8.40
2016,03,30,03,48,8.40
2016,03,30,03,49,8.40
2016,03,30,03,50,8.40
2016,03,30,03,51,8.40
2016,03,30,03,52,8.40
2016,03,30,03,53,8.40
2016,03,30,03,54,8.40
2016,03,30,03,55,8.40
2016,03,30,03,56,8.40
2016,03,30,03,57,8.40
2016,03,30,03,58,8.40
2016,03,30,03,59,8.40
2016,03,30,04,00,8.40
2016,03,30,04,01,8.40
2016,03,30,04,02,8.30
2016,03,30,04,03,8.30
2016,03,30,04,04,8.30
2016,03,30,04,05,8.30
2016,03,30,04,06,8.30
2016,03,30,04,07,8.20
2016,03,30,04,08,8.20
2016,03,30,04,09,8.20
2016,03,30,04,10,8.20
2016,03,30,04,11,8.20
2016,03,30,04,12,8.20
2016,03,30,04,13,8.10
2016,03,30,04,14,8.10
2016,03,30,04,15,8.00
2016,03,30,04,16,8.00
2016,03,30,04,17,8.00
2016,03,30,04,19,7.90
2016,03,30,04,21,7.90
2016,03,30,04,22,7.80
2016,03,30,04,23,7.80
2016,03,30,04,24,7.80
2016,03,30,04,26,7.80
2016,03,30,04,27,7.80
2016,03,30,04,28,7.80
2016,03,30,04,29,7.70
2016,03,30,04,31,7.70
2016,03,30,04,32,7.70
2016,03,30,04,33,7.60
2016,03,30,04,34,7.60
2016,03,30,04,36,7.60
2016,03,30,04,37,7.50
2016,03,30,04,38,7.50
2016,03,30,04,39,7.40
2016,03,30,04,41,7.40
2016,03,30,04,42,7.40
2016,03,30,04,43,7.40
2016,03,30,04,44,7.30
2016,03,30,04,46,7.30
2016,03,30,04,47,7.30
2016,03,30,04,48,7.30
2016,03,30,04,49,7.30
2016,03,30,04,51,7.30
2016,03,30,04,52,7.30
2016,03,30,04,53,7.30
2016,03,30,04,54,7.30
2016,03,30,04,56,7.40
2016,03,30,04,57,7.40
2016,03,30,04,58,7.40
2016,03,30,04,59,7.40
2016,03,30,05,01,7.50
2016,03,30,05,02,7.50
2016,03,30,05,03,7.50
2016,03,30,05,04,7.50
2016,03,30,05,06,7.50
2016,03,30,05,07,7.60
2016,03,30,05,08,7.60
2016,03,30,05,09,7.70
2016,03,30,05,11,7.80
2016,03,30,05,12,7.80
2016,03,30,05,13,7.80
2016,03,30,05,14,7.80
2016,03,30,05,16,7.90
2016,03,30,05,17,7.90
2016,03,30,05,18,7.90
2016,03,30,05,19,8.00
2016,03,30,05,21,8.00
2016,03,30,05,22,8.00
2016,03,30,05,23,8.00
2016,03,30,05,24,8.00
2016,03,30,05,26,8.10
2016,03,30,05,27,8.10
2016,03,30,05,28,8.10
2016,03,30,05,29,8.10
2016,03,30,05,31,8.20
2016,03,30,05,32,8.20
2016,03,30,05,33,8.20
2016,03,30,05,34,8.20
2016,03,30,05,36,8.20
2016,03,30,05,37,8.20
2016,03,30,05,38,8.20
2016,03,30,05,39,8.20
2016,03,30,05,40,8.20
2016,03,30,05,41,8.20
2016,03,30,05,42,8.20
2016,03,30,05,43,8.20
2016,03,30,05,44,8.20
2016,03,30,05,45,8.20
2016,03,30,05,46,8.20
2016,03,30,05,47,8.20
2016,03,30,05,48,8.20
2016,03,30,05,49,8.20
2016,03,30,05,50,8.20
2016,03,30,05,51,8.20
2016,03,30,05,52,8.20
2016,03,30,05,53,8.20
2016,03,30,05,54,8.20
2016,03,30,05,55,8.20
2016,03,30,05,56,8.20
2016,03,30,05,57,8.20
2016,03,30,05,58,8.20
2016,03,30,05,59,8.20
2016,03,30,06,00,8.20
2016,03,30,06,01,8.20
2016,03,30,06,02,8.20
2016,03,30,06,03,8.20
2016,03,30,06,04,8.20
2016,03,30,06,05,8.20
2016,03,30,06,06,8.20
2016,03,30,06,07,8.20
2016,03,30,06,08,8.20
2016,03,30,06,09,8.20
2016,03,30,06,10,8.20
2016,03,30,06,11,8.20
2016,03,30,06,12,8.20
2016,03,30,06,13,8.20
2016,03,30,06,14,8.20
2016,03,30,06,15,8.20
2016,03,30,06,16,8.20
2016,03,30,06,17,8.20
2016,03,30,06,18,8.20
2016,03,30,06,19,8.10
2016,03,30,06,20,8.10
2016,03,30,06,21,8.10
2016,03,30,06,22,8.10
2016,03,30,06,23,8.10
2016,03,30,06,24,8.10
2016,03,30,06,25,8.10
2016,03,30,06,26,8.10
2016,03,30,06,27,8.00
2016,03,30,06,28,8.00
2016,03,30,06,29,8.00
2016,03,30,06,30,8.00
2016,03,30,06,31,8.00
2016,03,30,06,32,8.00
2016,03,30,06,33,8.00
2016,03,30,06,34,8.00
2016,03,30,06,35,8.00
2016,03,30,06,36,8.00
2016,03,30,06,37,8.00
2016,03,30,06,38,8.00
2016,03,30,06,39,8.00
2016,03,30,06,40,8.00
2016,03,30,06,41,8.00
2016,03,30,06,42,8.00
2016,03,30,06,43,8.00
2016,03,30,06,44,8.00
2016,03,30,06,45,8.00
2016,03,30,06,46,7.90
2016,03,30,06,47,7.90
2016,03,30,06,48,8.00
2016,03,30,06,49,8.00
2016,03,30,06,50,8.00
2016,03,30,06,51,8.00
2016,03,30,06,52,8.00
2016,03,30,06,53,8.00
2016,03,30,06,54,8.00
2016,03,30,06,55,8.00
2016,03,30,06,56,8.00
2016,03,30,06,57,8.00
2016,03,30,06,58,8.00
2016,03,30,06,59,8.00
2016,03,30,07,00,8.00
2016,03,30,07,01,8.00
2016,03,30,07,02,8.00
2016,03,30,07,03,8.10
2016,03,30,07,04,8.10
2016,03,30,07,05,8.10
2016,03,30,07,06,8.10
2016,03,30,07,07,8.10
2016,03,30,07,08,8.10
2016,03,30,07,09,8.10
2016,03,30,07,10,8.20
2016,03,30,07,12,8.20
2016,03,30,07,13,8.20
2016,03,30,07,14,8.20
2016,03,30,07,16,8.20
2016,03,30,07,17,8.20
2016,03,30,07,18,8.20
2016,03,30,07,19,8.20
2016,03,30,07,21,8.20
2016,03,30,07,22,8.20
2016,03,30,07,23,8.30
2016,03,30,07,24,8.30
2016,03,30,07,26,8.30
2016,03,30,07,27,8.30
2016,03,30,07,28,8.30
2016,03,30,07,29,8.30
2016,03,30,07,31,8.30
2016,03,30,07,32,8.30
2016,03,30,07,33,8.30
2016,03,30,07,34,8.30
2016,03,30,07,36,8.30
2016,03,30,07,37,8.30
2016,03,30,07,38,8.30
2016,03,30,07,39,8.30
2016,03,30,07,41,8.40
2016,03,30,07,42,8.40
2016,03,30,07,43,8.40
2016,03,30,07,44,8.40
2016,03,30,07,46,8.50
2016,03,30,07,47,8.50
2016,03,30,07,48,8.60
2016,03,30,07,49,8.60
2016,03,30,07,51,8.60
2016,03,30,07,52,8.70
2016,03,30,07,53,8.70
2016,03,30,07,54,8.70
2016,03,30,07,56,8.70
2016,03,30,07,57,8.80
2016,03,30,07,58,8.80
2016,03,30,07,59,8.80
2016,03,30,08,01,8.90
2016,03,30,08,02,8.90
2016,03,30,08,03,9.00
2016,03,30,08,04,9.00
2016,03,30,08,06,9.10
2016,03,30,08,07,9.10
2016,03,30,08,08,9.20
2016,03,30,08,09,9.20
2016,03,30,08,11,9.20
2016,03,30,08,12,9.20
2016,03,30,08,13,9.20
2016,03,30,08,14,9.30
2016,03,30,08,16,9.30
2016,03,30,08,17,9.40
2016,03,30,08,18,9.40
2016,03,30,08,19,9.50
2016,03,30,08,21,9.50
2016,03,30,08,22,9.60
2016,03,30,08,23,9.60
2016,03,30,08,24,9.70
2016,03,30,08,25,9.70
2016,03,30,08,26,9.70
2016,03,30,08,27,9.70
2016,03,30,08,28,9.70
2016,03,30,08,29,9.70
2016,03,30,08,30,9.70
2016,03,30,08,31,9.70
2016,03,30,08,32,9.70
2016,03,30,08,33,9.70
2016,03,30,08,34,9.70
2016,03,30,08,35,9.80
2016,03,30,08,36,9.80
2016,03,30,08,37,9.80
2016,03,30,08,38,9.80
2016,03,30,08,39,9.90
2016,03,30,08,40,9.90
2016,03,30,08,41,9.90
2016,03,30,08,42,9.90
2016,03,30,08,43,9.90
2016,03,30,08,44,9.90
2016,03,30,08,45,9.90
2016,03,30,08,46,9.90
2016,03,30,08,47,9.90
2016,03,30,08,48,9.90
2016,03,30,08,49,9.90
2016,03,30,08,50,9.90
2016,03,30,08,51,9.90
2016,03,30,08,52,10.10
2016,03,30,08,53,10.10
2016,03,30,08,54,10.10
2016,03,30,08,55,10.10
2016,03,30,08,56,10.10
2016,03,30,08,57,10.10
2016,03,30,08,58,10.10
2016,03,30,08,59,9.90
2016,03,30,09,00,9.90
2016,03,30,09,01,9.90
2016,03,30,09,02,10.10
2016,03,30,09,03,10.10
2016,03,30,09,04,10.10
2016,03,30,09,05,10.10
2016,03,30,09,06,10.10
2016,03,30,09,07,10.20
2016,03,30,09,08,10.20
2016,03,30,09,09,10.20
2016,03,30,09,10,10.20
2016,03,30,09,11,10.30
2016,03,30,09,12,10.30
2016,03,30,09,13,10.30
2016,03,30,09,14,10.30
2016,03,30,09,15,10.30
2016,03,30,09,16,10.30
2016,03,30,09,17,10.30
2016,03,30,09,18,10.30
2016,03,30,09,19,10.30
2016,03,30,09,20,10.30
2016,03,30,09,21,10.30
2016,03,30,09,22,10.30
2016,03,30,09,23,10.30
2016,03,30,09,24,10.30
2016,03,30,09,25,10.30
2016,03,30,09,26,10.40
2016,03,30,09,27,10.40
2016,03,30,09,28,10.40
2016,03,30,09,29,10.40
2016,03,30,09,30,10.40
2016,03,30,09,31,10.40
2016,03,30,09,32,10.40
2016,03,30,09,33,10.40
2016,03,30,09,34,10.60
2016,03,30,09,35,10.60
2016,03,30,09,36,10.60
2016,03,30,09,37,10.60
2016,03,30,09,38,10.70
2016,03,30,09,39,10.80
2016,03,30,09,40,10.90
2016,03,30,09,41,10.90
2016,03,30,09,42,10.90
2016,03,30,09,43,10.90
2016,03,30,09,44,10.90
2016,03,30,09,45,11.10
2016,03,30,09,46,11.10
2016,03,30,09,47,11.10
2016,03,30,09,48,11.10
2016,03,30,09,49,11.10
2016,03,30,09,50,11.20
2016,03,30,09,51,11.20
2016,03,30,09,52,11.20
2016,03,30,09,53,11.30
2016,03,30,09,54,11.30
2016,03,30,09,55,11.30
2016,03,30,09,56,11.40
2016,03,30,09,57,11.40
2016,03,30,09,58,11.60
2016,03,30,09,59,11.60
2016,03,30,10,00,11.60
2016,03,30,10,02,11.60
2016,03,30,10,03,11.60
2016,03,30,10,04,11.60
2016,03,30,10,06,11.60
2016,03,30,10,07,11.60
2016,03,30,10,08,11.60
2016,03,30,10,09,11.60
2016,03,30,10,11,11.60
2016,03,30,10,12,11.60
2016,03,30,10,13,11.60
2016,03,30,10,14,11.70
2016,03,30,10,16,11.70
2016,03,30,10,17,11.70
2016,03,30,10,18,11.80
2016,03,30,10,19,11.80
2016,03,30,10,21,11.80
2016,03,30,10,22,11.90
2016,03,30,10,23,11.90
2016,03,30,10,24,12.00
2016,03,30,10,26,12.10
2016,03,30,10,27,12.20
2016,03,30,10,28,12.30
2016,03,30,10,29,12.30
2016,03,30,10,31,12.40
2016,03,30,10,32,12.40
2016,03,30,10,33,12.40
2016,03,30,10,34,12.40
2016,03,30,10,36,12.50
2016,03,30,10,37,12.50
2016,03,30,10,38,12.50
2016,03,30,10,39,12.50
2016,03,30,10,41,12.60
2016,03,30,10,42,12.60
2016,03,30,10,43,12.60
2016,03,30,10,44,12.60
2016,03,30,10,46,12.50
2016,03,30,10,47,12.50
2016,03,30,10,48,12.50
2016,03,30,10,49,12.40
2016,03,30,10,51,12.30
2016,03,30,10,52,12.30
2016,03,30,10,53,12.30
2016,03,30,10,54,12.30
2016,03,30,10,56,12.20
2016,03,30,10,57,12.20
2016,03,30,10,58,12.20
2016,03,30,10,59,12.10
2016,03,30,11,01,12.20
2016,03,30,11,02,12.20
2016,03,30,11,03,12.20
2016,03,30,11,04,12.30
2016,03,30,11,06,12.40
2016,03,30,11,07,12.50
2016,03,30,11,08,12.60
2016,03,30,11,09,12.70
2016,03,30,11,11,12.80
2016,03,30,11,12,12.90
2016,03,30,11,13,13.00
2016,03,30,11,14,13.10
2016,03,30,11,16,13.20
2016,03,30,11,17,13.20
2016,03,30,11,18,13.20
2016,03,30,11,19,13.20
2016,03,30,11,20,13.20
2016,03,30,11,21,13.10
2016,03,30,11,29,12.80
2016,03,30,11,30,12.80
2016,03,30,11,31,12.80
2016,03,30,11,32,12.80
2016,03,30,11,33,12.80
2016,03,30,11,34,12.90
2016,03,30,11,35,12.90
2016,03,30,11,36,13.00
2016,03,30,11,37,13.00
2016,03,30,11,38,13.10
2016,03,30,11,39,13.10
2016,03,30,11,40,13.00
2016,03,30,11,41,13.00
2016,03,30,11,42,13.00
2016,03,30,11,43,13.00
2016,03,30,11,44,13.00
2016,03,30,11,45,13.00
2016,03,30,11,46,13.00
2016,03,30,11,47,13.00
2016,03,30,11,48,13.00
2016,03,30,11,49,13.10
2016,03,30,11,50,13.10
2016,03,30,11,52,13.10
2016,03,30,11,53,13.10
2016,03,30,11,54,13.10
2016,03,30,11,56,13.10
2016,03,30,11,57,13.10
2016,03,30,11,58,13.10
2016,03,30,11,59,13.20
2016,03,30,12,01,13.20
2016,03,30,12,02,13.20
2016,03,30,12,03,13.20
2016,03,30,12,04,13.10
2016,03,30,12,06,13.10
2016,03,30,12,07,13.10
2016,03,30,12,08,13.00
2016,03,30,12,09,13.10
2016,03,30,12,11,13.10
2016,03,30,12,12,13.10
2016,03,30,12,13,13.10
2016,03,30,12,14,13.10
2016,03,30,12,16,13.10
2016,03,30,12,17,13.10
2016,03,30,12,18,13.10
2016,03,30,12,19,13.00
2016,03,30,12,21,13.00
2016,03,30,12,22,13.00
2016,03,30,12,23,13.00
2016,03,30,12,24,13.10
2016,03,30,12,26,13.10
2016,03,30,12,27,13.10
2016,03,30,12,28,13.10
2016,03,30,12,29,13.10
2016,03,30,12,31,13.20
2016,03,30,12,32,13.20
2016,03,30,12,33,13.30
2016,03,30,12,34,13.30
2016,03,30,12,36,13.30
2016,03,30,12,37,13.30
2016,03,30,12,38,13.30
2016,03,30,12,39,13.30
2016,03,30,12,41,13.30
2016,03,30,12,42,13.30
2016,03,30,12,43,13.30
2016,03,30,12,44,13.30
2016,03,30,12,46,13.30
2016,03,30,12,47,13.30
2016,03,30,12,48,13.30
2016,03,30,12,49,13.40
2016,03,30,12,51,13.50
2016,03,30,12,52,13.60
2016,03,30,12,53,13.70
2016,03,30,12,54,13.70
2016,03,30,12,56,13.80
2016,03,30,12,57,13.80
2016,03,30,12,58,13.80
2016,03,30,12,59,13.90
2016,03,30,13,01,14.00
2016,03,30,13,02,14.00
2016,03,30,13,03,14.10
2016,03,30,13,04,14.10
2016,03,30,13,05,14.10
2016,03,30,13,06,14.20
2016,03,30,13,07,14.20
2016,03,30,13,08,14.20
2016,03,30,13,09,14.20
2016,03,30,13,10,14.30
2016,03,30,13,11,14.30
2016,03,30,13,12,14.40
2016,03,30,13,13,14.50
2016,03,30,13,14,14.60
2016,03,30,13,15,14.70
2016,03,30,13,16,14.80
2016,03,30,13,17,14.80
2016,03,30,13,18,15.00
2016,03,30,13,19,15.00
2016,03,30,13,20,15.20
2016,03,30,13,21,15.30
2016,03,30,13,22,15.30
2016,03,30,13,23,15.30
2016,03,30,13,24,15.40
2016,03,30,13,25,15.40
2016,03,30,13,26,15.50
2016,03,30,13,27,15.50
2016,03,30,13,28,15.50
2016,03,30,13,29,15.60
2016,03,30,13,30,15.60
2016,03,30,13,31,15.50
2016,03,30,13,32,15.50
2016,03,30,13,33,15.40
2016,03,30,13,34,15.40
2016,03,30,13,35,15.40
2016,03,30,13,36,15.40
2016,03,30,13,38,15.30
2016,03,30,13,39,15.20
2016,03,30,13,41,14.90
2016,03,30,13,42,14.80
2016,03,30,13,43,14.70
2016,03,30,13,44,14.60
2016,03,30,13,46,14.40
2016,03,30,13,47,14.40
2016,03,30,13,48,14.30
2016,03,30,13,49,14.20
2016,03,30,13,51,14.10
2016,03,30,13,52,14.00
2016,03,30,13,53,13.90
2016,03,30,13,54,13.90
2016,03,30,13,56,13.80
2016,03,30,13,57,13.80
2016,03,30,13,58,13.70
2016,03,30,13,59,13.70
2016,03,30,14,01,13.70
2016,03,30,14,02,13.70
2016,03,30,14,03,13.70
2016,03,30,14,04,13.70
2016,03,30,14,06,13.60
2016,03,30,14,07,13.60
2016,03,30,14,08,13.50
2016,03,30,14,09,13.60
2016,03,30,14,11,13.80
2016,03,30,14,12,13.90
2016,03,30,14,13,14.10
2016,03,30,14,14,14.20
2016,03,30,14,16,14.20
2016,03,30,14,17,14.30
2016,03,30,14,18,14.30
2016,03,30,14,19,14.40
2016,03,30,14,21,14.50
2016,03,30,14,22,14.60
2016,03,30,14,23,14.70
2016,03,30,14,24,14.70
2016,03,30,14,25,14.80
2016,03,30,14,26,14.80
2016,03,30,14,27,14.90
2016,03,30,14,28,15.00
2016,03,30,14,29,15.10
2016,03,30,14,30,15.10
2016,03,30,14,31,15.10
2016,03,30,14,32,15.10
2016,03,30,14,33,15.10
2016,03,30,14,34,15.10
2016,03,30,14,35,15.10
2016,03,30,14,36,15.10
2016,03,30,14,37,15.10
2016,03,30,14,38,15.10
2016,03,30,14,39,15.10
2016,03,30,14,40,15.20
2016,03,30,14,41,15.20
2016,03,30,14,42,15.20
2016,03,30,14,43,15.20
2016,03,30,14,44,15.20
2016,03,30,14,45,15.10
2016,03,30,14,46,15.10
2016,03,30,14,47,15.00
2016,03,30,14,48,15.00
2016,03,30,14,49,15.00
2016,03,30,14,50,15.00
2016,03,30,14,51,15.00
2016,03,30,14,52,15.00
2016,03,30,14,53,15.10
2016,03,30,14,54,15.10
2016,03,30,14,55,15.10
2016,03,30,14,56,15.10
2016,03,30,14,57,15.00
2016,03,30,14,58,15.00
2016,03,30,14,59,15.00
2016,03,30,15,00,15.00
2016,03,30,15,01,15.00
2016,03,30,15,02,15.00
2016,03,30,15,03,15.00
2016,03,30,15,04,15.10
2016,03,30,15,05,15.10
2016,03,30,15,06,15.10
2016,03,30,15,07,15.20
2016,03,30,15,08,15.20
2016,03,30,15,09,15.20
2016,03,30,15,10,15.10
2016,03,30,15,11,15.10
2016,03,30,15,12,15.10
2016,03,30,15,13,15.10
2016,03,30,15,14,15.20
2016,03,30,15,15,15.20
2016,03,30,15,16,15.20
2016,03,30,15,17,15.30
2016,03,30,15,18,15.30
2016,03,30,15,19,15.50
2016,03,30,15,20,15.50
2016,03,30,15,21,15.50
2016,03,30,15,22,15.50
2016,03,30,15,23,15.40
2016,03,30,15,24,15.40
2016,03,30,15,25,15.40
2016,03,30,15,26,15.30
2016,03,30,15,27,15.30
2016,03,30,15,28,15.30
2016,03,30,15,29,15.30
2016,03,30,15,30,15.30
2016,03,30,15,31,15.20
2016,03,30,15,32,15.20
2016,03,30,15,33,15.20
2016,03,30,15,34,15.10
2016,03,30,15,35,15.10
2016,03,30,15,37,15.10
2016,03,30,15,38,15.10
2016,03,30,15,39,15.10
2016,03,30,15,41,15.10
2016,03,30,15,42,15.10
2016,03,30,15,43,15.10
2016,03,30,15,44,15.10
2016,03,30,15,46,15.10
2016,03,30,15,47,15.10
2016,03,30,15,48,15.10
2016,03,30,15,49,15.10
2016,03,30,15,51,15.20
2016,03,30,15,52,15.20
2016,03,30,15,53,15.30
2016,03,30,15,54,15.30
2016,03,30,15,56,15.30
2016,03,30,15,57,15.30
2016,03,30,15,58,15.30
2016,03,30,15,59,15.30
2016,03,30,16,01,15.30
2016,03,30,16,02,15.30
2016,03,30,16,03,15.30
2016,03,30,16,04,15.30
2016,03,30,16,06,15.30
2016,03,30,16,07,15.30
2016,03,30,16,08,15.30
2016,03,30,16,09,15.30
2016,03,30,16,11,15.30
2016,03,30,16,12,15.30
2016,03,30,16,13,15.30
2016,03,30,16,14,15.40
2016,03,30,16,16,15.40
2016,03,30,16,17,15.40
2016,03,30,16,18,15.40
2016,03,30,16,19,15.40
2016,03,30,16,21,15.40
2016,03,30,16,22,15.40
2016,03,30,16,23,15.50
2016,03,30,16,24,15.50
2016,03,30,16,26,15.60
2016,03,30,16,27,15.70
2016,03,30,16,28,15.70
2016,03,30,16,29,15.80
2016,03,30,16,31,15.80
2016,03,30,16,32,15.80
2016,03,30,16,33,15.80
2016,03,30,16,34,15.80
2016,03,30,16,36,15.80
2016,03,30,16,37,15.80
2016,03,30,16,38,15.80
2016,03,30,16,39,15.80
2016,03,30,16,41,15.80
2016,03,30,16,42,15.80
2016,03,30,16,43,15.80
2016,03,30,16,44,15.70
2016,03,30,16,46,15.70
2016,03,30,16,47,15.70
2016,03,30,16,48,15.60
2016,03,30,16,49,15.60
2016,03,30,16,51,15.60
2016,03,30,16,52,15.60
2016,03,30,16,53,15.70
2016,03,30,16,54,15.70
2016,03,30,16,55,15.70
2016,03,30,16,56,15.70
2016,03,30,16,57,15.70
2016,03,30,16,58,15.70
2016,03,30,16,59,15.80
2016,03,30,17,01,15.80
2016,03,30,17,02,15.80
2016,03,30,17,03,15.80
2016,03,30,17,04,15.80
2016,03,30,17,05,15.80
2016,03,30,17,06,15.80
2016,03,30,17,07,15.80
2016,03,30,17,08,15.80
2016,03,30,17,09,15.80
2016,03,30,17,10,15.80
2016,03,30,17,11,15.80
2016,03,30,17,12,15.80
2016,03,30,17,13,15.80
2016,03,30,17,14,15.80
2016,03,30,17,15,15.80
2016,03,30,17,16,15.80
2016,03,30,17,17,15.80
2016,03,30,17,18,15.80
2016,03,30,17,19,15.80
2016,03,30,17,20,15.80
2016,03,30,17,21,15.70
2016,03,30,17,22,15.60
2016,03,30,17,23,15.60
2016,03,30,17,24,15.50
2016,03,30,17,25,15.50
2016,03,30,17,26,15.50
2016,03,30,17,27,15.40
2016,03,30,17,28,15.30
2016,03,30,17,29,15.30
2016,03,30,17,30,15.20
2016,03,30,17,31,15.00
2016,03,30,17,32,14.80
2016,03,30,17,33,14.70
2016,03,30,17,34,14.60
2016,03,30,17,35,14.60
2016,03,30,17,36,14.40
2016,03,30,17,37,14.30
2016,03,30,17,38,14.30
2016,03,30,17,39,14.20
2016,03,30,17,40,14.20
2016,03,30,17,41,14.20
2016,03,30,17,42,14.20
2016,03,30,17,43,14.20
2016,03,30,17,44,14.20
2016,03,30,17,45,14.20
2016,03,30,17,46,14.10
2016,03,30,17,47,14.10
2016,03,30,17,48,14.10
2016,03,30,17,49,14.00
2016,03,30,17,50,14.00
2016,03,30,17,51,13.90
2016,03,30,17,52,13.90
2016,03,30,17,53,13.90
2016,03,30,17,54,13.80
2016,03,30,17,55,13.80
2016,03,30,17,56,13.80
2016,03,30,17,57,13.80
2016,03,30,17,58,13.70
2016,03,30,17,59,13.70
2016,03,30,18,00,13.70
2016,03,30,18,01,13.70
2016,03,30,18,02,13.80
2016,03,30,18,03,13.80
2016,03,30,18,04,13.80
2016,03,30,18,05,13.80
2016,03,30,18,06,13.80
2016,03,30,18,07,13.90
2016,03,30,18,08,13.90
2016,03,30,18,09,14.00
2016,03,30,18,10,14.00
2016,03,30,18,11,14.00
2016,03,30,18,13,14.10
2016,03,30,18,14,14.10
2016,03,30,18,16,14.10
2016,03,30,18,17,14.10
2016,03,30,18,18,14.10
2016,03,30,18,19,14.10
2016,03,30,18,21,14.00
2016,03,30,18,22,14.00
2016,03,30,18,23,13.90
2016,03,30,18,24,13.90
2016,03,30,18,26,13.90
2016,03,30,18,27,13.80
2016,03,30,18,28,13.80
2016,03,30,18,29,13.80
2016,03,30,18,31,13.80
2016,03,30,18,32,13.70
2016,03,30,18,33,13.70
2016,03,30,18,34,13.70
2016,03,30,18,36,13.60
2016,03,30,18,37,13.60
2016,03,30,18,38,13.50
2016,03,30,18,39,13.40
2016,03,30,18,41,13.30
2016,03,30,18,42,13.30
2016,03,30,18,43,13.30
2016,03,30,18,44,13.30
2016,03,30,18,46,13.30
2016,03,30,18,47,13.30
2016,03,30,18,48,13.20
2016,03,30,18,49,13.20
2016,03,30,18,51,13.10
2016,03,30,18,52,13.00
2016,03,30,18,53,13.00
2016,03,30,18,54,12.90
2016,03,30,18,56,12.80
2016,03,30,18,57,12.80
2016,03,30,18,58,12.80
2016,03,30,18,59,12.80
2016,03,30,19,01,12.80
2016,03,30,19,02,12.70
2016,03,30,19,03,12.70
2016,03,30,19,04,12.60
2016,03,30,19,06,12.60
2016,03,30,19,07,12.50
2016,03,30,19,08,12.50
2016,03,30,19,09,12.50
2016,03,30,19,11,12.40
2016,03,30,19,12,12.40
2016,03,30,19,13,12.30
2016,03,30,19,14,12.30
2016,03,30,19,16,12.30
2016,03,30,19,17,12.30
2016,03,30,19,18,12.30
2016,03,30,19,19,12.30
2016,03,30,19,21,12.20
2016,03,30,19,22,12.20
2016,03,30,19,23,12.10
2016,03,30,19,24,12.10
2016,03,30,19,26,12.10
2016,03,30,19,27,12.00
2016,03,30,19,28,12.00
2016,03,30,19,29,12.00
2016,03,30,19,31,11.90
2016,03,30,19,32,11.90
2016,03,30,19,33,11.90
2016,03,30,19,34,11.80
2016,03,30,19,36,11.80
2016,03,30,19,37,11.80
2016,03,30,19,38,11.80
2016,03,30,19,39,11.80
2016,03,30,19,40,11.80
2016,03,30,19,41,11.80
2016,03,30,19,42,11.80
2016,03,30,19,43,11.80
2016,03,30,19,44,11.70
2016,03,30,19,45,11.70
2016,03,30,19,46,11.70
2016,03,30,19,47,11.70
2016,03,30,19,48,11.70